Location: Antichan
(42.9728°N, 0.6667°E)
Time: 14:28:49
(UTC+00:00)

Cosmos 1602 - Pass Details

Date: 15 August 2020
Orbit: 513 x 535 km, 82.5° (Epoch: 24 September)

Event Time Altitude Azimuth Distance (km) Brightness Sun altitude
Exits shadow 20:36:55 25° 170° (S) 1,095 4.9 -16.5°
Maximum altitude 20:39:02 64° 96° (E) 594 3.7 -16.8°
Drops below altitude 10° 20:42:58 10° 14° (NNE) 1,800 6.8 -17.4°
Sets 20:45:08 0° 12° (NNE) 2,697 7.7 -17.7°
